Weather History for Grand Rapids, MI

Change the Weather History Date:

Monday, December 30, 2013

  Actual Average Record
Temperature  
Mean Temperature 17 °F 26 °F  
Max Temperature 19 °F 32 °F 60 °F (1936)
Min Temperature 15 °F 20 °F -11 °F (1976)
Degree Days  
Heating Degree Days 48 39  
Month to date heating degree days 1149 1071  
Since 1 July heating degree days 2471 2409  
Cooling Degree Days 0 0  
Month to date cooling degree days 0 0  
Year to date cooling degree days 767 699  
Moisture  
Dew Point 8 °F    
Average Humidity 67    
Maximum Humidity 80    
Minimum Humidity 53    
Precipitation  
Precipitation 0.01 in 0.07 in 1.75 in (1972)
Month to date precipitation 2.59 2.42  
Year to date precipitation 45.37 38.19  
Snow  
Snow 0.30 in 0.80 in 7.00 in (2001)
Month to date snowfall 31.8 21.1  
Since 1 July snowfall 34.0 28.4  
Snow Depth 4.00 in    
Sea Level Pressure  
Sea Level Pressure 30.19 in    
Wind  
Wind Speed 7 mph (West)    
Max Wind Speed 16 mph    
Max Gust Speed 20 mph    
Visibility 8 miles    
Events Snow    
T = Trace of Precipitation, MM = Missing Value Source: NWS Daily Summary

Daily Weather History Graph

Daily Weather History Graph

Search for Another Location

Airport:

Trip Planner

Search our weather history database for the weather conditions in past years. The results will help you decide how hot, cold, wet, or windy it might be!

Date:

Astronomy

Dec. 30, 2013 Rise Set
Actual Time 8:12 AM EST 5:16 PM EST
Civil Twilight 7:40 AM EST 5:49 PM EST
Nautical Twilight 7:04 AM EST 6:24 PM EST
Astronomical Twilight 6:30 AM EST 6:59 PM EST
Moon 6:00 AM EST (12/30) 3:50 PM EST (12/30)
Length of Visible Light 10h 08m
Length of Day
9h 04m
Waning Crescent, 5% of the Moon is Illuminated
Dec 30
Waning Crescent
Jan 1
New
Jan 7
First Quarter
Jan 15
Full
Jan 24
Last Quarter

Hourly Weather History & Observations

Time (EST) Temp. Windchill Dew Point Humidity Pressure Visibility Wind Dir Wind Speed Gust Speed Precip Events Conditions
12:53 AM 19.0 °F 7.5 °F 8.1 °F 62% 30.10 in 10.0 mi NW 10.4 mph - N/A   Overcast
1:53 AM 18.0 °F 7.7 °F 9.0 °F 68% 30.12 in 10.0 mi NNW 8.1 mph - N/A   Overcast
2:53 AM 17.1 °F 6.6 °F 9.0 °F 71% 30.15 in 10.0 mi NW 8.1 mph - N/A   Overcast
3:53 AM 17.1 °F 6.6 °F 9.0 °F 71% 30.17 in 10.0 mi North 8.1 mph - N/A   Overcast
4:53 AM 17.1 °F 7.6 °F 8.1 °F 68% 30.19 in 10.0 mi NNW 6.9 mph - N/A   Overcast
5:53 AM 16.0 °F 5.3 °F 6.1 °F 65% 30.19 in 10.0 mi North 8.1 mph - N/A   Overcast
6:53 AM 15.1 °F 5.2 °F 3.0 °F 59% 30.22 in 10.0 mi North 6.9 mph - N/A   Overcast
7:53 AM 15.1 °F 6.4 °F 1.9 °F 56% 30.25 in 10.0 mi North 5.8 mph - N/A   Overcast
8:53 AM 15.1 °F - 1.0 °F 54% 30.27 in 10.0 mi Calm Calm - N/A   Overcast
9:53 AM 16.0 °F - 3.0 °F 57% 30.29 in 10.0 mi Calm Calm - 0.00 in Snow Light Snow
10:53 AM 17.1 °F - 3.9 °F 56% 30.29 in 9.0 mi Calm Calm - 0.00 in Snow Light Snow
11:53 AM 18.0 °F - 5.0 °F 57% 30.28 in 9.0 mi Calm Calm - 0.00 in Snow Light Snow
12:53 PM 18.0 °F - 7.0 °F 62% 30.26 in 9.0 mi Calm Calm - 0.00 in Snow Light Snow
1:53 PM 18.0 °F - 9.0 °F 68% 30.23 in 9.0 mi Calm Calm - 0.00 in Snow Light Snow
2:35 PM 19.4 °F 11.5 °F 10.4 °F 68% 30.17 in 6.0 mi WSW 5.8 mph - 0.00 in Snow Light Snow
2:53 PM 19.0 °F 7.5 °F 10.0 °F 68% 30.21 in 9.0 mi WSW 10.4 mph - 0.00 in Snow Light Snow
3:28 PM 19.4 °F 9.5 °F 10.4 °F 68% 30.16 in 9.0 mi WSW 8.1 mph - 0.00 in Snow Light Snow
3:53 PM 19.0 °F 8.2 °F 10.0 °F 68% 30.21 in 9.0 mi West 9.2 mph - 0.00 in Snow Light Snow
4:53 PM 18.0 °F 4.2 °F 10.0 °F 71% 30.21 in 9.0 mi WSW 13.8 mph - 0.00 in Snow Light Snow
5:53 PM 17.1 °F 4.3 °F 7.0 °F 65% 30.21 in 10.0 mi WSW 11.5 mph - 0.00 in   Overcast
6:53 PM 17.1 °F 6.6 °F 8.1 °F 68% 30.20 in 10.0 mi WSW 8.1 mph - N/A   Overcast
7:53 PM 17.1 °F 7.6 °F 9.0 °F 71% 30.19 in 6.0 mi SW 6.9 mph - 0.00 in Snow Light Snow
8:38 PM 17.6 °F 8.2 °F 10.4 °F 73% 30.14 in 4.0 mi SW 6.9 mph - 0.00 in Snow Light Snow
8:53 PM 16.0 °F 6.3 °F 10.0 °F 77% 30.18 in 6.0 mi SW 6.9 mph - 0.00 in Snow Light Snow
9:53 PM 17.1 °F 6.6 °F 10.9 °F 77% 30.17 in 5.0 mi SW 8.1 mph - 0.00 in Snow Light Snow
10:03 PM 17.6 °F 7.3 °F 12.2 °F 79% 30.11 in 1.8 mi SW 8.1 mph - 0.00 in Snow Light Snow
10:20 PM 17.6 °F 8.2 °F 12.2 °F 79% 30.11 in 3.0 mi WSW 6.9 mph - 0.00 in Snow Light Snow
10:53 PM 17.1 °F 5.8 °F 10.9 °F 77% 30.15 in 3.0 mi WSW 9.2 mph - 0.00 in Snow Light Snow
11:31 PM 15.8 °F 2.7 °F 10.4 °F 79% 30.10 in 2.5 mi WSW 11.5 mph - 0.01 in Snow Light Snow
11:47 PM 15.8 °F 4.2 °F 10.4 °F 79% 30.10 in 1.8 mi WSW 9.2 mph - 0.01 in Snow Light Snow
11:53 PM 16.0 °F 2.9 °F 10.9 °F 81% 30.15 in 1.8 mi WSW 11.5 mph - 0.01 in Snow Light Snow